Data supplied by UK-AIR on 4/4/2023
All Data GMT hour ending 
Status: R =Ratified P=Provisional,P*=As supplied
,,Tower Hamlets Roadside,,,,,,,,,,,,,,,,,,,,,,,
Date,time,"Nitric oxide",status,unit,"Nitrogen dioxide",status,unit,"Nitrogen oxides as nitrogen dioxide",status,unit
 
01-01-2022,01:00,0.87311,R,ugm-3,10.32750,R,ugm-3,11.66625,R,ugm-3
01-01-2022,02:00,1.87095,R,ugm-3,8.03250,R,ugm-3,11.09250,R,ugm-3
01-01-2022,03:00,1.24730,R,ugm-3,6.12000,R,ugm-3,8.03250,R,ugm-3
01-01-2022,04:00,0.99784,R,ugm-3,4.39875,R,ugm-3,6.12000,R,ugm-3
01-01-2022,05:00,0.74838,R,ugm-3,5.16375,R,ugm-3,6.12000,R,ugm-3
01-01-2022,06:00,0.37419,R,ugm-3,3.44250,R,ugm-3,4.01625,R,ugm-3
01-01-2022,07:00,0.12473,R,ugm-3,4.01625,R,ugm-3,4.20750,R,ugm-3
01-01-2022,08:00,0.37419,R,ugm-3,3.82500,R,ugm-3,4.39875,R,ugm-3
01-01-2022,09:00,0.37419,R,ugm-3,5.35500,R,ugm-3,5.92875,R,ugm-3
01-01-2022,10:00,0.74838,R,ugm-3,7.07625,R,ugm-3,8.22375,R,ugm-3
01-01-2022,11:00,1.37203,R,ugm-3,7.26750,R,ugm-3,9.37125,R,ugm-3
01-01-2022,12:00,1.37203,R,ugm-3,6.31125,R,ugm-3,8.60625,R,ugm-3
01-01-2022,13:00,1.37203,R,ugm-3,6.50250,R,ugm-3,8.60625,R,ugm-3
01-01-2022,14:00,1.49676,R,ugm-3,8.98875,R,ugm-3,11.28375,R,ugm-3
01-01-2022,15:00,1.62149,R,ugm-3,8.22375,R,ugm-3,10.71000,R,ugm-3
01-01-2022,16:00,1.99568,R,ugm-3,8.41500,R,ugm-3,11.47500,R,ugm-3
01-01-2022,17:00,1.99568,R,ugm-3,8.60625,R,ugm-3,11.47500,R,ugm-3
01-01-2022,18:00,1.87095,R,ugm-3,8.60625,R,ugm-3,11.28375,R,ugm-3
01-01-2022,19:00,2.61933,R,ugm-3,10.13625,R,ugm-3,14.15250,R,ugm-3
01-01-2022,20:00,1.99568,R,ugm-3,11.47500,R,ugm-3,14.53500,R,ugm-3
01-01-2022,21:00,2.12041,R,ugm-3,10.32750,R,ugm-3,13.38750,R,ugm-3
01-01-2022,22:00,1.24730,R,ugm-3,8.41500,R,ugm-3,10.32750,R,ugm-3
01-01-2022,23:00,1.24730,R,ugm-3,7.45875,R,ugm-3,9.37125,R,ugm-3
01-01-2022,24:00,0.74838,R,ugm-3,7.26750,R,ugm-3,8.60625,R,ugm-3
02-01-2022,01:00,0.87311,R,ugm-3,6.50250,R,ugm-3,7.84125,R,ugm-3
02-01-2022,02:00,0.74838,R,ugm-3,4.20750,R,ugm-3,5.16375,R,ugm-3
02-01-2022,03:00,0.37419,R,ugm-3,3.25125,R,ugm-3,3.82500,R,ugm-3
02-01-2022,04:00,0.49892,R,ugm-3,3.63375,R,ugm-3,4.39875,R,ugm-3
02-01-2022,05:00,0.62365,R,ugm-3,2.67750,R,ugm-3,3.44250,R,ugm-3
02-01-2022,06:00,0.00000,R,ugm-3,1.91250,R,ugm-3,2.10375,R,ugm-3
02-01-2022,07:00,0.24946,R,ugm-3,1.72125,R,ugm-3,2.10375,R,ugm-3
02-01-2022,08:00,0.49892,R,ugm-3,3.25125,R,ugm-3,4.01625,R,ugm-3
02-01-2022,09:00,0.49892,R,ugm-3,4.97250,R,ugm-3,5.92875,R,ugm-3
02-01-2022,10:00,0.62365,R,ugm-3,5.16375,R,ugm-3,6.31125,R,ugm-3
02-01-2022,11:00,1.24730,R,ugm-3,6.31125,R,ugm-3,8.22375,R,ugm-3
02-01-2022,12:00,1.24730,R,ugm-3,6.88500,R,ugm-3,8.79750,R,ugm-3
02-01-2022,13:00,2.36987,R,ugm-3,8.79750,R,ugm-3,12.43125,R,ugm-3
02-01-2022,14:00,1.62149,R,ugm-3,7.84125,R,ugm-3,10.13625,R,ugm-3
02-01-2022,15:00,1.12257,R,ugm-3,7.26750,R,ugm-3,8.98875,R,ugm-3
02-01-2022,16:00,1.49676,R,ugm-3,6.88500,R,ugm-3,8.98875,R,ugm-3
02-01-2022,17:00,3.49244,R,ugm-3,9.94500,R,ugm-3,15.30000,R,ugm-3
02-01-2022,18:00,2.49460,R,ugm-3,13.00500,R,ugm-3,16.83000,R,ugm-3
02-01-2022,19:00,2.49460,R,ugm-3,11.09250,R,ugm-3,14.91750,R,ugm-3
02-01-2022,20:00,2.49460,R,ugm-3,11.28375,R,ugm-3,15.10875,R,ugm-3
02-01-2022,21:00,1.99568,R,ugm-3,9.37125,R,ugm-3,12.24000,R,ugm-3
02-01-2022,22:00,1.49676,R,ugm-3,8.22375,R,ugm-3,10.51875,R,ugm-3
02-01-2022,23:00,5.23866,R,ugm-3,8.98875,R,ugm-3,17.02125,R,ugm-3
02-01-2022,24:00,2.12041,R,ugm-3,5.35500,R,ugm-3,8.60625,R,ugm-3
03-01-2022,01:00,1.99568,R,ugm-3,7.45875,R,ugm-3,10.51875,R,ugm-3
03-01-2022,02:00,0.87311,R,ugm-3,4.20750,R,ugm-3,5.54625,R,ugm-3
03-01-2022,03:00,0.74838,R,ugm-3,2.86875,R,ugm-3,4.01625,R,ugm-3
03-01-2022,04:00,1.12257,R,ugm-3,3.63375,R,ugm-3,5.54625,R,ugm-3
03-01-2022,05:00,0.49892,R,ugm-3,2.29500,R,ugm-3,3.06000,R,ugm-3
03-01-2022,06:00,0.49892,R,ugm-3,2.10375,R,ugm-3,3.06000,R,ugm-3
03-01-2022,07:00,1.12257,R,ugm-3,4.39875,R,ugm-3,6.12000,R,ugm-3
03-01-2022,08:00,0.62365,R,ugm-3,5.35500,R,ugm-3,6.31125,R,ugm-3
03-01-2022,09:00,1.24730,R,ugm-3,6.69375,R,ugm-3,8.60625,R,ugm-3
03-01-2022,10:00,1.37203,R,ugm-3,9.75375,R,ugm-3,11.85750,R,ugm-3
03-01-2022,11:00,2.36987,R,ugm-3,9.18000,R,ugm-3,12.81375,R,ugm-3
03-01-2022,12:00,1.99568,R,ugm-3,9.37125,R,ugm-3,12.43125,R,ugm-3
03-01-2022,13:00,2.12041,R,ugm-3,10.13625,R,ugm-3,13.38750,R,ugm-3
03-01-2022,14:00,2.49460,R,ugm-3,11.85750,R,ugm-3,15.68250,R,ugm-3
03-01-2022,15:00,3.86663,R,ugm-3,13.77000,R,ugm-3,19.69875,R,ugm-3
03-01-2022,16:00,2.61933,R,ugm-3,13.77000,R,ugm-3,17.78625,R,ugm-3
03-01-2022,17:00,2.61933,R,ugm-3,17.02125,R,ugm-3,21.03750,R,ugm-3
03-01-2022,18:00,1.87095,R,ugm-3,17.40375,R,ugm-3,20.27250,R,ugm-3
03-01-2022,19:00,3.36771,R,ugm-3,20.84625,R,ugm-3,26.01000,R,ugm-3
03-01-2022,20:00,2.24514,R,ugm-3,19.69875,R,ugm-3,23.14125,R,ugm-3
03-01-2022,21:00,2.74406,R,ugm-3,18.36000,R,ugm-3,22.37625,R,ugm-3
03-01-2022,22:00,3.36771,R,ugm-3,17.59500,R,ugm-3,22.75875,R,ugm-3
03-01-2022,23:00,2.74406,R,ugm-3,16.63875,R,ugm-3,20.84625,R,ugm-3
03-01-2022,24:00,2.24514,R,ugm-3,13.77000,R,ugm-3,17.40375,R,ugm-3
04-01-2022,01:00,2.86879,R,ugm-3,12.81375,R,ugm-3,17.40375,R,ugm-3
04-01-2022,02:00,0.74838,R,ugm-3,8.98875,R,ugm-3,10.13625,R,ugm-3
04-01-2022,03:00,1.24730,R,ugm-3,9.18000,R,ugm-3,11.09250,R,ugm-3
04-01-2022,04:00,1.37203,R,ugm-3,7.84125,R,ugm-3,9.94500,R,ugm-3
04-01-2022,05:00,2.12041,R,ugm-3,9.75375,R,ugm-3,13.00500,R,ugm-3
04-01-2022,06:00,2.36987,R,ugm-3,13.19625,R,ugm-3,16.83000,R,ugm-3
04-01-2022,07:00,5.73758,R,ugm-3,21.80250,R,ugm-3,30.40875,R,ugm-3
04-01-2022,08:00,10.47732,R,ugm-3,33.46875,R,ugm-3,49.53375,R,ugm-3
04-01-2022,09:00,13.96976,R,ugm-3,38.63250,R,ugm-3,60.05250,R,ugm-3
04-01-2022,10:00,13.96976,R,ugm-3,32.51250,R,ugm-3,53.93250,R,ugm-3
04-01-2022,11:00,10.22786,R,ugm-3,22.95000,R,ugm-3,38.63250,R,ugm-3
04-01-2022,12:00,9.23002,R,ugm-3,21.03750,R,ugm-3,35.38125,R,ugm-3
04-01-2022,13:00,14.21922,R,ugm-3,25.24500,R,ugm-3,47.04750,R,ugm-3
04-01-2022,14:00,11.59989,R,ugm-3,25.62750,R,ugm-3,43.22250,R,ugm-3
04-01-2022,15:00,14.21922,R,ugm-3,27.15750,R,ugm-3,48.96000,R,ugm-3
04-01-2022,16:00,15.71598,R,ugm-3,29.64375,R,ugm-3,53.93250,R,ugm-3
04-01-2022,17:00,16.58909,R,ugm-3,33.46875,R,ugm-3,58.90500,R,ugm-3
04-01-2022,18:00,13.47084,R,ugm-3,34.23375,R,ugm-3,54.88875,R,ugm-3
04-01-2022,19:00,11.22570,R,ugm-3,30.79125,R,ugm-3,48.00375,R,ugm-3
04-01-2022,20:00,14.59341,R,ugm-3,38.82375,R,ugm-3,61.20000,R,ugm-3
04-01-2022,21:00,7.73326,R,ugm-3,31.36500,R,ugm-3,43.22250,R,ugm-3
04-01-2022,22:00,6.86015,R,ugm-3,24.48000,R,ugm-3,34.99875,R,ugm-3
04-01-2022,23:00,6.36123,R,ugm-3,19.31625,R,ugm-3,29.07000,R,ugm-3
04-01-2022,24:00,6.86015,R,ugm-3,19.89000,R,ugm-3,30.60000,R,ugm-3
05-01-2022,01:00,3.49244,R,ugm-3,16.06500,R,ugm-3,21.42000,R,ugm-3
05-01-2022,02:00,2.86879,R,ugm-3,12.62250,R,ugm-3,17.02125,R,ugm-3
05-01-2022,03:00,2.61933,R,ugm-3,11.66625,R,ugm-3,15.68250,R,ugm-3
05-01-2022,04:00,1.49676,R,ugm-3,10.71000,R,ugm-3,13.00500,R,ugm-3
05-01-2022,05:00,2.24514,R,ugm-3,10.71000,R,ugm-3,14.34375,R,ugm-3
05-01-2022,06:00,3.11825,R,ugm-3,14.53500,R,ugm-3,19.31625,R,ugm-3
05-01-2022,07:00,5.48812,R,ugm-3,18.74250,R,ugm-3,27.15750,R,ugm-3
05-01-2022,08:00,9.60421,R,ugm-3,25.43625,R,ugm-3,40.35375,R,ugm-3
05-01-2022,09:00,17.71166,R,ugm-3,33.08625,R,ugm-3,60.24375,R,ugm-3
05-01-2022,10:00,17.08801,R,ugm-3,40.16250,R,ugm-3,66.36375,R,ugm-3
05-01-2022,11:00,20.95464,R,ugm-3,37.29375,R,ugm-3,69.42375,R,ugm-3
05-01-2022,12:00,13.09665,R,ugm-3,26.20125,R,ugm-3,46.28250,R,ugm-3
05-01-2022,13:00,10.47732,R,ugm-3,20.46375,R,ugm-3,36.52875,R,ugm-3
05-01-2022,14:00,12.97192,R,ugm-3,20.08125,R,ugm-3,39.97125,R,ugm-3
05-01-2022,15:00,12.47300,R,ugm-3,21.80250,R,ugm-3,40.92750,R,ugm-3
05-01-2022,16:00,15.34179,R,ugm-3,27.15750,R,ugm-3,50.68125,R,ugm-3
05-01-2022,17:00,18.08585,R,ugm-3,37.48500,R,ugm-3,65.21625,R,ugm-3
05-01-2022,18:00,15.59125,R,ugm-3,40.92750,R,ugm-3,64.83375,R,ugm-3
05-01-2022,19:00,19.45788,R,ugm-3,43.22250,R,ugm-3,73.05750,R,ugm-3
05-01-2022,20:00,18.46004,R,ugm-3,45.32625,R,ugm-3,73.63125,R,ugm-3
05-01-2022,21:00,31.05777,R,ugm-3,50.68125,R,ugm-3,98.49375,R,ugm-3
05-01-2022,22:00,23.69870,R,ugm-3,48.38625,R,ugm-3,84.72375,R,ugm-3
05-01-2022,23:00,22.82559,R,ugm-3,50.10750,R,ugm-3,84.91500,R,ugm-3
05-01-2022,24:00,34.42548,R,ugm-3,49.34250,R,ugm-3,102.12750,R,ugm-3
06-01-2022,01:00,31.80615,R,ugm-3,51.06375,R,ugm-3,99.83250,R,ugm-3
06-01-2022,02:00,43.78023,R,ugm-3,51.06375,R,ugm-3,118.19250,R,ugm-3
06-01-2022,03:00,39.28995,R,ugm-3,47.43000,R,ugm-3,107.86500,R,ugm-3
06-01-2022,04:00,33.67710,R,ugm-3,47.23875,R,ugm-3,98.87625,R,ugm-3
06-01-2022,05:00,28.06425,R,ugm-3,43.03125,R,ugm-3,86.06250,R,ugm-3
06-01-2022,06:00,13.09665,R,ugm-3,39.78000,R,ugm-3,60.05250,R,ugm-3
06-01-2022,07:00,5.23866,R,ugm-3,37.29375,R,ugm-3,45.32625,R,ugm-3
06-01-2022,08:00,15.84071,R,ugm-3,44.94375,R,ugm-3,69.23250,R,ugm-3
06-01-2022,09:00,39.53941,R,ugm-3,49.53375,R,ugm-3,110.16000,R,ugm-3
06-01-2022,10:00,34.67494,R,ugm-3,47.62125,R,ugm-3,100.78875,R,ugm-3
06-01-2022,11:00,29.56101,R,ugm-3,51.06375,R,ugm-3,96.39000,R,ugm-3
06-01-2022,12:00,8.60637,R,ugm-3,46.09125,R,ugm-3,59.47875,R,ugm-3
06-01-2022,13:00,,,,,,,,,
06-01-2022,14:00,2.99352,R,ugm-3,26.39250,R,ugm-3,30.98250,R,ugm-3
06-01-2022,15:00,3.36771,R,ugm-3,27.73125,R,ugm-3,33.08625,R,ugm-3
06-01-2022,16:00,3.36771,R,ugm-3,26.77500,R,ugm-3,31.93875,R,ugm-3
06-01-2022,17:00,1.87095,R,ugm-3,18.93375,R,ugm-3,21.80250,R,ugm-3
06-01-2022,18:00,1.62149,R,ugm-3,14.91750,R,ugm-3,17.40375,R,ugm-3
06-01-2022,19:00,1.74622,R,ugm-3,10.71000,R,ugm-3,13.38750,R,ugm-3
06-01-2022,20:00,1.24730,R,ugm-3,8.60625,R,ugm-3,10.51875,R,ugm-3
06-01-2022,21:00,1.49676,R,ugm-3,9.18000,R,ugm-3,11.47500,R,ugm-3
06-01-2022,22:00,1.87095,R,ugm-3,13.00500,R,ugm-3,15.87375,R,ugm-3
06-01-2022,23:00,2.49460,R,ugm-3,14.34375,R,ugm-3,18.36000,R,ugm-3
06-01-2022,24:00,4.24082,R,ugm-3,16.63875,R,ugm-3,23.14125,R,ugm-3
07-01-2022,01:00,1.99568,R,ugm-3,10.13625,R,ugm-3,13.19625,R,ugm-3
07-01-2022,02:00,1.12257,R,ugm-3,7.84125,R,ugm-3,9.37125,R,ugm-3
07-01-2022,03:00,1.24730,R,ugm-3,7.84125,R,ugm-3,9.75375,R,ugm-3
07-01-2022,04:00,1.12257,R,ugm-3,7.26750,R,ugm-3,8.98875,R,ugm-3
07-01-2022,05:00,1.37203,R,ugm-3,7.45875,R,ugm-3,9.56250,R,ugm-3
07-01-2022,06:00,1.37203,R,ugm-3,7.26750,R,ugm-3,9.37125,R,ugm-3
07-01-2022,07:00,2.36987,R,ugm-3,9.56250,R,ugm-3,13.19625,R,ugm-3
07-01-2022,08:00,4.24082,R,ugm-3,17.59500,R,ugm-3,24.09750,R,ugm-3
07-01-2022,09:00,6.48596,R,ugm-3,24.09750,R,ugm-3,34.04250,R,ugm-3
07-01-2022,10:00,5.61285,R,ugm-3,23.52375,R,ugm-3,32.13000,R,ugm-3
07-01-2022,11:00,9.10529,R,ugm-3,26.96625,R,ugm-3,40.92750,R,ugm-3
07-01-2022,12:00,11.35043,R,ugm-3,28.87875,R,ugm-3,46.28250,R,ugm-3
07-01-2022,13:00,12.97192,R,ugm-3,27.73125,R,ugm-3,47.81250,R,ugm-3
07-01-2022,14:00,14.71814,R,ugm-3,32.32125,R,ugm-3,54.88875,R,ugm-3
07-01-2022,15:00,9.72894,R,ugm-3,32.70375,R,ugm-3,47.43000,R,ugm-3
07-01-2022,16:00,10.35259,R,ugm-3,29.45250,R,ugm-3,45.32625,R,ugm-3
07-01-2022,17:00,13.59557,R,ugm-3,36.52875,R,ugm-3,57.37500,R,ugm-3
07-01-2022,18:00,12.34827,R,ugm-3,37.10250,R,ugm-3,56.03625,R,ugm-3
07-01-2022,19:00,16.83855,R,ugm-3,39.58875,R,ugm-3,65.21625,R,ugm-3
07-01-2022,20:00,13.47084,R,ugm-3,38.44125,R,ugm-3,59.09625,R,ugm-3
07-01-2022,21:00,9.10529,R,ugm-3,35.57250,R,ugm-3,49.34250,R,ugm-3
07-01-2022,22:00,9.97840,R,ugm-3,35.95500,R,ugm-3,51.25500,R,ugm-3
07-01-2022,23:00,10.10313,R,ugm-3,35.95500,R,ugm-3,51.44625,R,ugm-3
07-01-2022,24:00,8.85583,R,ugm-3,39.58875,R,ugm-3,52.97625,R,ugm-3
08-01-2022,01:00,8.23218,R,ugm-3,34.80750,R,ugm-3,47.23875,R,ugm-3
08-01-2022,02:00,1.49676,R,ugm-3,20.08125,R,ugm-3,22.37625,R,ugm-3
08-01-2022,03:00,3.36771,R,ugm-3,19.50750,R,ugm-3,24.67125,R,ugm-3
08-01-2022,04:00,1.87095,R,ugm-3,15.68250,R,ugm-3,18.55125,R,ugm-3
08-01-2022,05:00,1.12257,R,ugm-3,15.30000,R,ugm-3,17.02125,R,ugm-3
08-01-2022,06:00,0.37419,R,ugm-3,15.30000,R,ugm-3,15.87375,R,ugm-3
08-01-2022,07:00,0.62365,R,ugm-3,13.00500,R,ugm-3,13.96125,R,ugm-3
08-01-2022,08:00,0.99784,R,ugm-3,15.68250,R,ugm-3,17.21250,R,ugm-3
08-01-2022,09:00,1.24730,R,ugm-3,17.59500,R,ugm-3,19.50750,R,ugm-3
08-01-2022,10:00,1.37203,R,ugm-3,15.10875,R,ugm-3,17.21250,R,ugm-3
08-01-2022,11:00,1.74622,R,ugm-3,14.53500,R,ugm-3,17.21250,R,ugm-3
08-01-2022,12:00,1.62149,R,ugm-3,14.72625,R,ugm-3,17.21250,R,ugm-3
08-01-2022,13:00,2.12041,R,ugm-3,13.77000,R,ugm-3,17.02125,R,ugm-3
08-01-2022,14:00,2.36987,R,ugm-3,13.96125,R,ugm-3,17.59500,R,ugm-3
08-01-2022,15:00,3.61717,R,ugm-3,16.25625,R,ugm-3,21.61125,R,ugm-3
08-01-2022,16:00,2.99352,R,ugm-3,19.12500,R,ugm-3,23.52375,R,ugm-3
08-01-2022,17:00,6.48596,R,ugm-3,24.67125,R,ugm-3,34.42500,R,ugm-3
08-01-2022,18:00,12.47300,R,ugm-3,30.79125,R,ugm-3,49.91625,R,ugm-3
08-01-2022,19:00,10.72678,R,ugm-3,31.36500,R,ugm-3,47.81250,R,ugm-3
08-01-2022,20:00,7.60853,R,ugm-3,21.03750,R,ugm-3,32.89500,R,ugm-3
08-01-2022,21:00,4.11609,R,ugm-3,11.28375,R,ugm-3,17.59500,R,ugm-3
08-01-2022,22:00,5.11393,R,ugm-3,15.68250,R,ugm-3,23.52375,R,ugm-3
08-01-2022,23:00,5.86231,R,ugm-3,22.18500,R,ugm-3,31.17375,R,ugm-3
08-01-2022,24:00,4.24082,R,ugm-3,19.89000,R,ugm-3,26.58375,R,ugm-3
09-01-2022,01:00,3.99136,R,ugm-3,19.89000,R,ugm-3,25.81875,R,ugm-3
09-01-2022,02:00,2.36987,R,ugm-3,16.44750,R,ugm-3,20.08125,R,ugm-3
09-01-2022,03:00,2.24514,R,ugm-3,13.77000,R,ugm-3,17.40375,R,ugm-3
09-01-2022,04:00,1.24730,R,ugm-3,11.85750,R,ugm-3,13.77000,R,ugm-3
09-01-2022,05:00,1.24730,R,ugm-3,10.51875,R,ugm-3,12.24000,R,ugm-3
09-01-2022,06:00,0.99784,R,ugm-3,11.66625,R,ugm-3,13.19625,R,ugm-3
09-01-2022,07:00,1.62149,R,ugm-3,13.19625,R,ugm-3,15.68250,R,ugm-3
09-01-2022,08:00,1.74622,R,ugm-3,16.83000,R,ugm-3,19.50750,R,ugm-3
09-01-2022,09:00,1.74622,R,ugm-3,17.40375,R,ugm-3,20.08125,R,ugm-3
09-01-2022,10:00,4.24082,R,ugm-3,19.69875,R,ugm-3,26.20125,R,ugm-3
09-01-2022,11:00,7.48380,R,ugm-3,25.62750,R,ugm-3,37.10250,R,ugm-3
09-01-2022,12:00,9.60421,R,ugm-3,30.21750,R,ugm-3,44.94375,R,ugm-3
09-01-2022,13:00,10.22786,R,ugm-3,26.01000,R,ugm-3,41.69250,R,ugm-3
09-01-2022,14:00,12.47300,R,ugm-3,30.79125,R,ugm-3,49.91625,R,ugm-3
09-01-2022,15:00,9.85367,R,ugm-3,29.07000,R,ugm-3,44.17875,R,ugm-3
09-01-2022,16:00,12.09881,R,ugm-3,38.05875,R,ugm-3,56.61000,R,ugm-3
09-01-2022,17:00,8.85583,R,ugm-3,41.50125,R,ugm-3,55.27125,R,ugm-3
09-01-2022,18:00,10.22786,R,ugm-3,49.91625,R,ugm-3,65.40750,R,ugm-3
09-01-2022,19:00,11.35043,R,ugm-3,57.37500,R,ugm-3,74.77875,R,ugm-3
09-01-2022,20:00,9.97840,R,ugm-3,60.43500,R,ugm-3,75.92625,R,ugm-3
09-01-2022,21:00,16.46436,R,ugm-3,61.39125,R,ugm-3,86.63625,R,ugm-3
09-01-2022,22:00,26.19330,R,ugm-3,62.34750,R,ugm-3,102.51000,R,ugm-3
09-01-2022,23:00,29.06209,R,ugm-3,62.15625,R,ugm-3,106.52625,R,ugm-3
09-01-2022,24:00,28.06425,R,ugm-3,60.05250,R,ugm-3,103.08375,R,ugm-3
10-01-2022,01:00,17.58693,R,ugm-3,56.61000,R,ugm-3,83.76750,R,ugm-3
10-01-2022,02:00,8.35691,R,ugm-3,50.29875,R,ugm-3,63.11250,R,ugm-3
10-01-2022,03:00,12.84719,R,ugm-3,48.76875,R,ugm-3,68.27625,R,ugm-3
10-01-2022,04:00,23.32451,R,ugm-3,46.85625,R,ugm-3,82.62000,R,ugm-3
10-01-2022,05:00,46.52429,R,ugm-3,48.76875,R,ugm-3,119.91375,R,ugm-3
10-01-2022,06:00,59.37148,R,ugm-3,47.81250,R,ugm-3,138.84750,R,ugm-3
10-01-2022,07:00,98.03778,R,ugm-3,49.34250,R,ugm-3,199.66500,R,ugm-3
10-01-2022,08:00,129.84393,R,ugm-3,52.02000,R,ugm-3,251.11125,R,ugm-3
10-01-2022,09:00,156.41142,R,ugm-3,61.96500,R,ugm-3,301.79250,R,ugm-3
10-01-2022,10:00,198.57016,R,ugm-3,70.76250,R,ugm-3,375.42375,R,ugm-3
10-01-2022,11:00,167.01347,R,ugm-3,69.04125,R,ugm-3,324.93375,R,ugm-3
10-01-2022,12:00,176.99187,R,ugm-3,79.94250,R,ugm-3,351.32625,R,ugm-3
10-01-2022,13:00,100.53238,R,ugm-3,73.82250,R,ugm-3,227.77875,R,ugm-3
10-01-2022,14:00,57.87472,R,ugm-3,70.38000,R,ugm-3,159.12000,R,ugm-3
10-01-2022,15:00,8.60637,R,ugm-3,43.22250,R,ugm-3,56.41875,R,ugm-3
10-01-2022,16:00,6.61069,R,ugm-3,40.35375,R,ugm-3,50.49000,R,ugm-3
10-01-2022,17:00,6.98488,R,ugm-3,44.17875,R,ugm-3,55.08000,R,ugm-3
10-01-2022,18:00,4.11609,R,ugm-3,35.38125,R,ugm-3,41.50125,R,ugm-3
10-01-2022,19:00,4.98920,R,ugm-3,37.48500,R,ugm-3,45.13500,R,ugm-3
10-01-2022,20:00,3.36771,R,ugm-3,30.40875,R,ugm-3,35.57250,R,ugm-3
10-01-2022,21:00,2.61933,R,ugm-3,33.08625,R,ugm-3,37.10250,R,ugm-3
10-01-2022,22:00,2.12041,R,ugm-3,27.15750,R,ugm-3,30.40875,R,ugm-3
10-01-2022,23:00,1.24730,R,ugm-3,19.31625,R,ugm-3,21.22875,R,ugm-3
10-01-2022,24:00,2.24514,R,ugm-3,15.68250,R,ugm-3,19.12500,R,ugm-3
11-01-2022,01:00,0.37419,R,ugm-3,13.00500,R,ugm-3,13.57875,R,ugm-3
11-01-2022,02:00,1.24730,R,ugm-3,12.04875,R,ugm-3,13.96125,R,ugm-3
11-01-2022,03:00,0.74838,R,ugm-3,10.90125,R,ugm-3,12.04875,R,ugm-3
11-01-2022,04:00,0.12473,R,ugm-3,8.60625,R,ugm-3,8.79750,R,ugm-3
11-01-2022,05:00,0.87311,R,ugm-3,8.03250,R,ugm-3,9.37125,R,ugm-3
11-01-2022,06:00,1.24730,R,ugm-3,9.37125,R,ugm-3,11.28375,R,ugm-3
11-01-2022,07:00,1.12257,R,ugm-3,17.21250,R,ugm-3,18.93375,R,ugm-3
11-01-2022,08:00,2.74406,R,ugm-3,21.61125,R,ugm-3,25.62750,R,ugm-3
11-01-2022,09:00,5.23866,R,ugm-3,25.43625,R,ugm-3,33.46875,R,ugm-3
11-01-2022,10:00,8.10745,R,ugm-3,31.36500,R,ugm-3,43.79625,R,ugm-3
11-01-2022,11:00,10.97624,R,ugm-3,31.55625,R,ugm-3,48.38625,R,ugm-3
11-01-2022,12:00,10.97624,R,ugm-3,33.27750,R,ugm-3,50.10750,R,ugm-3
11-01-2022,13:00,10.85151,R,ugm-3,33.85125,R,ugm-3,50.49000,R,ugm-3
11-01-2022,14:00,8.35691,R,ugm-3,34.04250,R,ugm-3,46.85625,R,ugm-3
11-01-2022,15:00,10.22786,R,ugm-3,32.13000,R,ugm-3,47.81250,R,ugm-3
11-01-2022,16:00,31.68142,R,ugm-3,43.60500,R,ugm-3,92.18250,R,ugm-3
11-01-2022,17:00,63.36284,R,ugm-3,57.94875,R,ugm-3,155.10375,R,ugm-3
11-01-2022,18:00,54.50701,R,ugm-3,50.68125,R,ugm-3,134.25750,R,ugm-3
11-01-2022,19:00,21.07937,R,ugm-3,41.11875,R,ugm-3,73.63125,R,ugm-3
11-01-2022,20:00,18.58477,R,ugm-3,38.05875,R,ugm-3,66.55500,R,ugm-3
11-01-2022,21:00,17.96112,R,ugm-3,36.52875,R,ugm-3,64.06875,R,ugm-3
11-01-2022,22:00,12.72246,R,ugm-3,32.70375,R,ugm-3,52.21125,R,ugm-3
11-01-2022,23:00,11.35043,R,ugm-3,28.30500,R,ugm-3,45.70875,R,ugm-3
11-01-2022,24:00,13.96976,R,ugm-3,28.68750,R,ugm-3,50.10750,R,ugm-3
12-01-2022,01:00,16.33963,R,ugm-3,31.17375,R,ugm-3,56.22750,R,ugm-3
12-01-2022,02:00,10.22786,R,ugm-3,27.54000,R,ugm-3,43.03125,R,ugm-3
12-01-2022,03:00,10.72678,R,ugm-3,25.05375,R,ugm-3,41.50125,R,ugm-3
12-01-2022,04:00,9.97840,R,ugm-3,22.56750,R,ugm-3,37.86750,R,ugm-3
12-01-2022,05:00,16.21490,R,ugm-3,28.30500,R,ugm-3,53.35875,R,ugm-3
12-01-2022,06:00,21.32883,R,ugm-3,31.74750,R,ugm-3,64.45125,R,ugm-3
12-01-2022,07:00,29.06209,R,ugm-3,35.57250,R,ugm-3,80.13375,R,ugm-3
12-01-2022,08:00,67.85312,R,ugm-3,42.84000,R,ugm-3,146.88000,R,ugm-3
12-01-2022,09:00,100.78184,R,ugm-3,50.87250,R,ugm-3,205.21125,R,ugm-3
12-01-2022,10:00,121.11283,R,ugm-3,57.75750,R,ugm-3,243.46125,R,ugm-3
12-01-2022,11:00,97.66359,R,ugm-3,61.96500,R,ugm-3,211.71375,R,ugm-3
12-01-2022,12:00,77.20787,R,ugm-3,69.23250,R,ugm-3,187.61625,R,ugm-3
12-01-2022,13:00,97.91305,R,ugm-3,78.98625,R,ugm-3,229.11750,R,ugm-3
12-01-2022,14:00,79.82720,R,ugm-3,80.13375,R,ugm-3,202.34250,R,ugm-3
12-01-2022,15:00,78.57990,R,ugm-3,84.72375,R,ugm-3,205.21125,R,ugm-3
12-01-2022,16:00,82.07234,R,ugm-3,78.03000,R,ugm-3,203.87250,R,ugm-3
12-01-2022,17:00,91.30236,R,ugm-3,74.97000,R,ugm-3,214.96500,R,ugm-3
12-01-2022,18:00,105.39685,R,ugm-3,74.01375,R,ugm-3,235.62000,R,ugm-3
12-01-2022,19:00,131.46542,R,ugm-3,76.11750,R,ugm-3,277.69500,R,ugm-3
12-01-2022,20:00,162.14900,R,ugm-3,76.11750,R,ugm-3,324.93375,R,ugm-3
12-01-2022,21:00,156.66088,R,ugm-3,75.73500,R,ugm-3,315.75375,R,ugm-3
12-01-2022,22:00,122.23540,R,ugm-3,69.42375,R,ugm-3,256.84875,R,ugm-3
12-01-2022,23:00,118.36877,R,ugm-3,66.74625,R,ugm-3,248.43375,R,ugm-3
12-01-2022,24:00,102.77752,R,ugm-3,62.34750,R,ugm-3,219.74625,R,ugm-3
13-01-2022,01:00,76.70895,R,ugm-3,55.46250,R,ugm-3,173.08125,R,ugm-3
13-01-2022,02:00,50.14146,R,ugm-3,49.53375,R,ugm-3,126.22500,R,ugm-3
13-01-2022,03:00,41.65982,R,ugm-3,47.04750,R,ugm-3,110.92500,R,ugm-3
13-01-2022,04:00,44.77807,R,ugm-3,44.37000,R,ugm-3,113.02875,R,ugm-3
13-01-2022,05:00,32.42980,R,ugm-3,42.26625,R,ugm-3,91.99125,R,ugm-3
13-01-2022,06:00,36.04697,R,ugm-3,39.20625,R,ugm-3,94.47750,R,ugm-3
13-01-2022,07:00,52.13714,R,ugm-3,43.41375,R,ugm-3,123.35625,R,ugm-3
13-01-2022,08:00,94.29588,R,ugm-3,48.19500,R,ugm-3,192.58875,R,ugm-3
13-01-2022,09:00,97.91305,R,ugm-3,52.40250,R,ugm-3,202.53375,R,ugm-3
13-01-2022,10:00,112.63119,R,ugm-3,55.84500,R,ugm-3,228.54375,R,ugm-3
13-01-2022,11:00,95.91737,R,ugm-3,59.86125,R,ugm-3,206.93250,R,ugm-3
13-01-2022,12:00,63.98649,R,ugm-3,75.54375,R,ugm-3,173.65500,R,ugm-3
13-01-2022,13:00,49.26835,R,ugm-3,79.75125,R,ugm-3,155.29500,R,ugm-3
13-01-2022,14:00,19.20842,R,ugm-3,64.83375,R,ugm-3,94.28625,R,ugm-3
13-01-2022,15:00,20.58045,R,ugm-3,64.45125,R,ugm-3,96.00750,R,ugm-3
13-01-2022,16:00,25.44492,R,ugm-3,66.74625,R,ugm-3,105.76125,R,ugm-3
13-01-2022,17:00,38.04265,R,ugm-3,78.60375,R,ugm-3,136.93500,R,ugm-3
13-01-2022,18:00,50.26619,R,ugm-3,77.64750,R,ugm-3,154.72125,R,ugm-3
13-01-2022,19:00,36.92008,R,ugm-3,67.89375,R,ugm-3,124.31250,R,ugm-3
13-01-2022,20:00,46.39956,R,ugm-3,70.57125,R,ugm-3,141.71625,R,ugm-3
13-01-2022,21:00,25.69438,R,ugm-3,70.38000,R,ugm-3,109.77750,R,ugm-3
13-01-2022,22:00,36.67062,R,ugm-3,67.32000,R,ugm-3,123.35625,R,ugm-3
13-01-2022,23:00,51.76295,R,ugm-3,66.74625,R,ugm-3,146.11500,R,ugm-3
13-01-2022,24:00,51.01457,R,ugm-3,64.83375,R,ugm-3,143.05500,R,ugm-3
14-01-2022,01:00,85.93897,R,ugm-3,63.68625,R,ugm-3,195.45750,R,ugm-3
14-01-2022,02:00,92.42493,R,ugm-3,67.12875,R,ugm-3,208.84500,R,ugm-3
14-01-2022,03:00,85.93897,R,ugm-3,60.24375,R,ugm-3,192.01500,R,ugm-3
14-01-2022,04:00,79.82720,R,ugm-3,57.56625,R,ugm-3,180.15750,R,ugm-3
14-01-2022,05:00,55.50485,R,ugm-3,53.16750,R,ugm-3,138.27375,R,ugm-3
14-01-2022,06:00,70.97137,R,ugm-3,54.69750,R,ugm-3,163.51875,R,ugm-3
14-01-2022,07:00,112.13227,R,ugm-3,58.14000,R,ugm-3,230.26500,R,ugm-3
14-01-2022,08:00,160.40278,R,ugm-3,62.34750,R,ugm-3,308.29500,R,ugm-3
14-01-2022,09:00,186.09716,R,ugm-3,67.89375,R,ugm-3,353.23875,R,ugm-3
14-01-2022,10:00,182.60472,R,ugm-3,73.82250,R,ugm-3,353.81250,R,ugm-3
14-01-2022,11:00,180.23485,R,ugm-3,88.16625,R,ugm-3,364.52250,R,ugm-3
14-01-2022,12:00,194.20461,R,ugm-3,111.69000,R,ugm-3,409.65750,R,ugm-3
14-01-2022,13:00,130.59231,R,ugm-3,99.25875,R,ugm-3,299.30625,R,ugm-3
14-01-2022,14:00,124.48054,R,ugm-3,95.43375,R,ugm-3,286.30125,R,ugm-3
14-01-2022,15:00,116.37309,R,ugm-3,89.50500,R,ugm-3,267.94125,R,ugm-3
14-01-2022,16:00,101.40549,R,ugm-3,80.32500,R,ugm-3,235.81125,R,ugm-3
14-01-2022,17:00,89.05722,R,ugm-3,74.77875,R,ugm-3,211.33125,R,ugm-3
14-01-2022,18:00,97.16467,R,ugm-3,71.71875,R,ugm-3,220.70250,R,ugm-3
14-01-2022,19:00,110.13659,R,ugm-3,71.52750,R,ugm-3,240.40125,R,ugm-3
14-01-2022,20:00,114.25268,R,ugm-3,74.01375,R,ugm-3,249.19875,R,ugm-3
14-01-2022,21:00,158.40710,R,ugm-3,77.64750,R,ugm-3,320.53500,R,ugm-3
14-01-2022,22:00,139.19868,R,ugm-3,76.30875,R,ugm-3,289.74375,R,ugm-3
14-01-2022,23:00,99.78400,R,ugm-3,71.33625,R,ugm-3,224.33625,R,ugm-3
14-01-2022,24:00,74.96273,R,ugm-3,66.17250,R,ugm-3,181.11375,R,ugm-3
15-01-2022,01:00,64.98433,R,ugm-3,61.58250,R,ugm-3,161.22375,R,ugm-3
15-01-2022,02:00,64.85960,R,ugm-3,54.12375,R,ugm-3,153.38250,R,ugm-3
15-01-2022,03:00,34.79967,R,ugm-3,47.23875,R,ugm-3,100.59750,R,ugm-3
15-01-2022,04:00,23.07505,R,ugm-3,40.92750,R,ugm-3,76.30875,R,ugm-3
15-01-2022,05:00,16.33963,R,ugm-3,40.35375,R,ugm-3,65.40750,R,ugm-3
15-01-2022,06:00,6.48596,R,ugm-3,37.29375,R,ugm-3,47.23875,R,ugm-3
15-01-2022,07:00,8.23218,R,ugm-3,37.67625,R,ugm-3,50.49000,R,ugm-3
15-01-2022,08:00,24.69654,R,ugm-3,42.26625,R,ugm-3,80.32500,R,ugm-3
15-01-2022,09:00,39.16522,R,ugm-3,42.84000,R,ugm-3,103.08375,R,ugm-3
15-01-2022,10:00,28.06425,R,ugm-3,40.73625,R,ugm-3,83.76750,R,ugm-3
15-01-2022,11:00,21.82775,R,ugm-3,34.23375,R,ugm-3,67.70250,R,ugm-3
15-01-2022,12:00,25.81911,R,ugm-3,35.57250,R,ugm-3,75.16125,R,ugm-3
15-01-2022,13:00,17.96112,R,ugm-3,37.29375,R,ugm-3,64.83375,R,ugm-3
15-01-2022,14:00,13.47084,R,ugm-3,34.42500,R,ugm-3,55.08000,R,ugm-3
15-01-2022,15:00,15.09233,R,ugm-3,43.41375,R,ugm-3,66.55500,R,ugm-3
15-01-2022,16:00,9.35475,R,ugm-3,45.90000,R,ugm-3,60.24375,R,ugm-3